CW4114 Weather Reports


Display with metric or nautical units.
time (UTC)temp
F
wind
direction
speed
MPH
gust
MPH
rain 1hr
in
rain 24hr
in
rain mn
in
humidity
%
barometer
mb
20260510112758 39 264 6.0 10.0 0.00 0.00 0.00 80 1012.0
20260510112258 39 293 4.0 11.0 0.00 0.00 0.00 80 1011.9
20260510112029 38 278 5.0 11.0 0.00 0.00 0.00 81 1012.0
20260510111258 38 276 7.0 11.0 0.00 0.00 0.00 81 1011.8
20260510110758 38 265 7.0 11.0 0.00 0.00 0.00 82 1011.8
20260510110525 37 261 6.0 10.0 0.00 0.00 0.00 82 1011.7
20260510105757 37 275 6.0 10.0 0.00 0.00 0.00 82 1011.6
20260510104757 37 247 5.0 7.0 0.00 0.00 0.00 82 1011.4
20260510104301 37 271 5.0 7.0 0.00 0.00 0.00 82 1011.4
20260510103757 37 271 5.0 7.0 0.00 0.00 0.00 81 1011.3
20260510103257 37 285 6.0 7.0 0.00 0.00 0.00 81 1011.2
20260510102758 37 283 5.0 7.0 0.00 0.00 0.00 81 1011.1
20260510102256 37 279 4.0 7.0 0.00 0.00 0.00 81 1011.0
20260510101255 37 274 4.0 10.0 0.00 0.00 0.00 81 1010.9
20260510100756 37 281 5.0 9.0 0.00 0.00 0.00 81 1010.9
20260510100522 37 286 4.0 9.0 0.00 0.00 0.00 80 1010.8
20260510095756 37 226 4.0 10.0 0.00 0.00 0.00 80 1010.7
20260510095256 37 271 6.0 10.0 0.00 0.00 0.00 80 1010.7
20260510094755 37 278 5.0 9.0 0.00 0.00 0.00 80 1010.6
20260510094255 37 271 5.0 9.0 0.00 0.00 0.00 80 1010.5
20260510094041 37 283 5.0 9.0 0.00 0.00 0.00 79 1010.5
20260510093254 37 259 4.0 12.0 0.00 0.00 0.00 79 1010.4
20260510092754 37 264 4.0 12.0 0.00 0.00 0.00 80 1010.4
20260510092521 37 292 6.0 13.0 0.00 0.00 0.00 79 1010.4
20260510091754 37 272 6.0 13.0 0.00 0.00 0.00 79 1010.3
20260510091254 37 272 5.0 10.0 0.00 0.00 0.00 79 1010.2
20260510090753 37 293 5.0 10.0 0.00 0.00 0.00 79 1010.1
20260510090252 37 274 5.0 10.0 0.00 0.00 0.00 78 1010.1
20260510085752 37 262 6.0 12.0 0.00 0.00 0.00 78 1010.0
20260510085252 37 281 6.0 12.0 0.00 0.00 0.00 78 1009.9
20260510084751 37 288 6.0 11.0 0.00 0.00 0.00 78 1009.9
20260510084251 37 275 6.0 9.0 0.00 0.00 0.00 77 1009.8
20260510083751 37 237 5.0 9.0 0.00 0.00 0.00 77 1009.6
20260510083524 37 258 4.0 11.0 0.00 0.00 0.00 77 1009.5
20260510082751 37 255 6.0 11.0 0.00 0.00 0.00 77 1009.5
20260510082251 38 267 6.0 10.0 0.00 0.00 0.00 77 1009.4
20260510081751 38 255 7.0 11.0 0.00 0.00 0.00 77 1009.4
20260510081250 38 264 7.0 11.0 0.00 0.00 0.00 77 1009.4
20260510080753 38 272 7.0 11.0 0.00 0.00 0.00 76 1009.2
20260510080251 38 267 6.0 10.0 0.00 0.00 0.00 76 1009.2
20260510080016 38 283 6.0 10.0 0.00 0.00 0.00 76 1009.1
20260510075250 38 276 6.0 10.0 0.00 0.00 0.00 75 1009.0
20260510074751 38 259 6.0 13.0 0.00 0.00 0.00 75 1009.0
20260510074248 38 257 6.0 13.0 0.00 0.00 0.00 75 1008.9
20260510073749 38 295 7.0 10.0 0.00 0.00 0.00 74 1009.0
20260510073250 38 254 6.0 10.0 0.00 0.00 0.00 74 1008.9
20260510072750 38 258 6.0 9.0 0.00 0.00 0.00 74 1008.9
20260510072251 38 262 5.0 7.0 0.00 0.00 0.00 73 1008.8
20260510072022 38 245 4.0 7.0 0.00 0.00 0.00 73 1008.6
20260510071250 39 286 5.0 10.0 0.00 0.00 0.00 73 1008.7
20260510070748 39 240 6.0 10.0 0.00 0.00 0.00 73 1008.7
20260510070249 39 254 6.0 9.0 0.00 0.00 0.00 72 1008.6
20260510065749 40 250 5.0 9.0 0.00 0.00 0.00 72 1008.6
20260510065516 40 282 5.0 9.0 0.00 0.00 0.00 72 1008.5
20260510064248 40 276 3.0 9.0 0.00 0.00 0.00 71 1008.5
20260510063749 40 286 5.0 9.0 0.00 0.00 0.00 70 1008.3
20260510063248 40 281 4.0 10.0 0.00 0.00 0.00 70 1008.3
20260510062747 40 292 3.0 10.0 0.00 0.00 0.00 69 1008.3
20260510062512 41 283 4.0 10.0 0.00 0.00 0.00 68 1008.2
20260510061750 41 306 4.0 10.0 0.00 0.00 0.00 67 1008.2
20260510060747 41 341 5.0 11.0 0.00 0.00 0.00 66 1008.2
20260510060248 41 316 6.0 15.0 0.00 0.00 0.00 65 1008.1
20260510055742 41 324 6.0 15.0 0.00 0.00 0.00 65 1008.1
20260510055243 42 324 4.0 12.0 0.00 0.00 0.00 64 1008.1
20260510054742 42 302 4.0 15.0 0.00 0.00 0.00 63 1008.1
20260510054242 42 312 7.0 15.0 0.00 0.00 0.00 62 1008.0
20260510054008 42 344 6.0 16.0 0.00 0.00 0.00 61 1007.9
20260510053505 42 341 7.0 16.0 0.00 0.00 0.00 61 1007.9
20260510052736 42 319 9.0 16.0 0.00 0.00 0.00 61 1007.8
20260510052238 42 299 6.0 16.0 0.00 0.00 0.00 61 1007.9
20260510051735 42 326 4.0 21.0 0.00 0.00 0.00 61 1007.8
20260510051234 42 312 8.0 21.0 0.00 0.00 0.00 61 1007.7
20260510050735 42 329 6.0 12.0 0.00 0.00 0.00 61 1007.7
20260510050501 42 317 6.0 17.0 0.00 0.00 0.00 62 1007.7
20260510045728 42 307 8.0 17.0 0.00 0.00 0.00 62 1007.6
20260510045226 42 310 9.0 15.0 0.00 0.00 0.00 62 1007.7
20260510044727 42 306 5.0 15.0 0.00 0.00 0.00 62 1007.6
20260510043722 42 316 4.0 15.0 0.00 0.00 0.00 62 1007.5
20260510043221 42 326 6.0 15.0 0.00 0.00 0.00 62 1007.4
20260510042720 42 282 8.0 15.0 0.00 0.00 0.00 62 1007.4
20260510042220 42 283 4.0 13.0 0.00 0.00 0.00 62 1007.4
20260510041719 42 296 4.0 14.0 0.00 0.00 0.00 62 1007.4
20260510041221 42 329 4.0 16.0 0.00 0.00 0.00 62 1007.2
20260510040717 42 314 5.0 16.0 0.00 0.00 0.00 62 1007.1
20260510040220 42 49 5.0 17.0 0.00 0.00 0.00 60 1007.0
20260510035711 42 354 9.0 19.0 0.00 0.00 0.00 61 1007.0
20260510035214 42 309 9.0 19.0 0.00 0.00 0.00 62 1007.0
20260510034710 42 348 6.0 13.0 0.00 0.00 0.00 63 1007.1
20260510034211 42 310 6.0 14.0 0.00 0.00 0.00 65 1007.0
20260510033711 42 272 3.0 14.0 0.00 0.00 0.00 66 1007.1
20260510033209 42 296 4.0 9.0 0.00 0.00 0.00 67 1007.0
20260510032708 42 293 2.0 7.0 0.00 0.00 0.00 67 1007.0
20260510032208 43 292 4.0 7.0 0.00 0.00 0.00 67 1006.9
20260510031707 43 289 2.0 9.0 0.00 0.00 0.00 66 1006.9
20260510031206 43 293 4.0 9.0 0.00 0.00 0.00 66 1007.0
20260510030705 43 316 6.0 11.0 0.00 0.00 0.00 65 1006.9
20260510030204 44 329 2.0 16.0 0.00 0.00 0.00 64 1006.9
20260510025704 44 344 4.0 16.0 0.00 0.00 0.00 64 1006.9
20260510025203 44 333 4.0 12.0 0.00 0.00 0.00 64 1006.9
20260510024706 44 305 5.0 9.0 0.00 0.00 0.00 63 1006.9
20260510024206 44 7 3.0 7.0 0.00 0.00 0.00 63 1006.8
20260510023705 44 292 3.0 7.0 0.00 0.00 0.00 63 1006.8
20260510023203 44 289 3.0 10.0 0.00 0.00 0.00 63 1006.7
20260510022703 44 358 4.0 11.0 0.00 0.00 0.00 63 1006.5
20260510022203 44 302 4.0 11.0 0.00 0.00 0.00 63 1006.5
20260510021700 44 333 4.0 12.0 0.00 0.00 0.00 64 1006.5
20260510021159 44 306 4.0 12.0 0.00 0.00 0.00 65 1006.3
20260510020923 44 319 3.0 9.0 0.00 0.00 0.00 65 1006.2
20260510020445 45 299 4.0 13.0 0.00 0.00 0.00 65 1006.0
20260510015633 45 306 6.0 13.0 0.00 0.00 0.00 65 1005.9
20260510015404 45 348 4.0 13.0 0.00 0.00 0.00 65 1005.8
20260510014634 45 323 5.0 12.0 0.00 0.00 0.00 65 1005.6
20260510014133 45 310 4.0 18.0 0.00 0.00 0.00 64 1005.6
20260510013637 45 289 7.0 18.0 0.00 0.00 0.00 64 1005.5
20260510013132 45 283 6.0 17.0 0.00 0.00 0.00 64 1005.4
20260510012633 45 330 8.0 17.0 0.00 0.00 0.00 64 1005.2
20260510012132 45 358 4.0 15.0 0.00 0.00 0.00 64 1005.1
20260510011634 45 343 8.0 15.0 0.00 0.00 0.00 64 1005.0
20260510011135 46 347 5.0 13.0 0.00 0.00 0.00 65 1005.0
20260510010631 46 11 5.0 14.0 0.00 0.00 0.00 65 1005.0
20260510010133 46 300 8.0 18.0 0.00 0.00 0.00 65 1004.9
20260510005553 46 302 6.0 18.0 0.00 0.00 0.00 65 1004.9
20260510005053 46 319 8.0 16.0 0.00 0.00 0.00 66 1004.8
20260510004822 46 326 6.0 19.0 0.00 0.00 0.00 66 1004.7
20260510004054 46 307 8.0 19.0 0.00 0.00 0.00 66 1004.7
20260510003553 46 331 5.0 19.0 0.00 0.00 0.00 67 1004.4
20260510003323 47 317 7.0 19.0 0.00 0.00 0.00 66 1004.4
20260510002554 47 343 8.0 15.0 0.00 0.00 0.00 66 1004.2
20260510002053 47 7 6.0 16.0 0.00 0.00 0.00 66 1004.0
20260510001552 47 348 7.0 16.0 0.00 0.00 0.00 66 1003.9
20260510001052 47 330 8.0 16.0 0.00 0.00 0.00 65 1003.8
20260510000551 47 341 7.0 20.0 0.00 0.00 0.00 65 1003.5
20260510000053 47 337 9.0 23.0 0.00 0.00 0.00 64 1003.3
20260509235738 47 28 7.0 23.0 0.00 0.00 0.00 65 1003.2
20260509235005 47 327 8.0 18.0 0.00 0.00 0.00 65 1003.1
20260509234736 48 314 9.0 21.0 0.00 0.00 0.00 64 1003.0
20260509234005 49 341 7.0 21.0 0.00 0.00 0.00 62 1002.8
20260509233505 49 350 9.0 27.0 0.00 0.00 0.00 60 1002.5
20260509233238 50 330 8.0 27.0 0.00 0.00 0.00 57 1002.5
20260509232505 50 307 9.0 18.0 0.00 0.00 0.00 54 1002.4
20260509232005 51 336 6.0 20.0 0.00 0.00 0.00 51 1002.3
20260509231735 52 2 9.0 22.0 0.00 0.00 0.00 46 1002.1
20260509231009 53 343 6.0 22.0 0.00 0.00 0.00 43 1002.0
20260509230508 53 312 9.0 22.0 0.00 0.00 0.00 40 1001.9
20260509230232 54 351 6.0 22.0 0.00 0.00 0.00 40 1001.7
20260509225459 54 340 7.0 24.0 0.00 0.00 0.00 39 1001.6
20260509224728 54 283 11.0 26.0 0.00 0.00 0.00 39 1001.3
20260509223959 54 331 10.0 24.0 0.00 0.00 0.00 38 1001.3
20260509223458 55 358 9.0 19.0 0.00 0.00 0.00 37 1001.4
20260509223226 55 289 7.0 24.0 0.00 0.00 0.00 37 1001.0
20260509222505 56 306 9.0 24.0 0.00 0.00 0.00 36 1001.0
20260509221955 56 305 7.0 22.0 0.00 0.00 0.00 37 1000.9
20260509221454 55 314 11.0 22.0 0.00 0.00 0.00 37 1000.8
20260509220952 55 312 9.0 22.0 0.00 0.00 0.00 39 1000.8
20260509220721 55 257 12.0 22.0 0.00 0.00 0.00 39 1000.5
20260509215951 55 298 9.0 22.0 0.00 0.00 0.00 40 1000.4
20260509215449 55 4 5.0 19.0 0.00 0.00 0.00 41 1000.3
20260509214446 55 299 8.0 17.0 0.00 0.00 0.00 40 1000.2
20260509213946 55 350 4.0 20.0 0.00 0.00 0.00 40 1000.1
20260509212943 55 327 12.0 23.0 0.00 0.00 0.00 40 999.9
20260509212710 56 317 8.0 22.0 0.00 0.00 0.00 41 999.8
20260509211942 56 305 9.0 26.0 0.00 0.00 0.00 41 999.6
20260509211442 56 312 10.0 26.0 0.00 0.00 0.00 41 999.6
20260509210942 58 314 9.0 22.0 0.00 0.00 0.00 36 999.4
20260509210441 58 286 7.0 19.0 0.00 0.00 0.00 35 999.3
20260509205942 58 324 9.0 19.0 0.00 0.00 0.00 36 999.0
20260509205436 57 51 8.0 17.0 0.00 0.00 0.00 39 999.1
20260509204934 56 348 8.0 21.0 0.00 0.00 0.00 40 998.9
20260509204434 56 327 9.0 27.0 0.00 0.00 0.00 41 998.7
20260509203935 55 1 5.0 27.0 0.00 0.00 0.00 44 998.5
20260509203436 54 9 10.0 21.0 0.00 0.00 0.00 43 998.5
20260509203210 55 24 7.0 21.0 0.00 0.00 0.00 42 998.6
20260509202437 55 331 9.0 19.0 0.00 0.00 0.00 41 998.4
20260509202204 55 345 8.0 18.0 0.00 0.00 0.00 41 998.4
20260509201433 55 1 10.0 18.0 0.00 0.00 0.00 41 998.1
20260509200933 56 8 8.0 20.0 0.00 0.00 0.00 40 997.9
20260509200433 59 305 8.0 21.0 0.00 0.00 0.00 37 997.8
20260509195932 59 330 7.0 21.0 0.00 0.00 0.00 37 997.8
20260509195701 60 307 6.0 21.0 0.00 0.00 0.00 41 997.7
20260509194934 59 343 8.0 21.0 0.00 0.00 0.00 45 997.5
20260509194428 58 8 9.0 20.0 0.00 0.00 0.00 45 997.4
20260509194152 59 307 11.0 21.0 0.00 0.00 0.00 44 997.4
20260509193422 59 307 10.0 21.0 0.00 0.00 0.00 43 997.2
20260509192918 60 254 6.0 21.0 0.00 0.00 0.00 44 997.1
20260509192418 61 312 9.0 21.0 0.00 0.00 0.00 43 997.1
20260509191921 62 274 11.0 19.0 0.00 0.00 0.00 45 997.0
20260509190919 61 324 10.0 18.0 0.00 0.00 0.00 47 996.9
20260509190647 60 353 8.0 21.0 0.00 0.00 0.00 48 996.9
20260509185916 59 258 11.0 21.0 0.00 0.00 0.00 46 997.0
20260509185419 59 278 9.0 27.0 0.00 0.00 0.00 45 997.0
20260509184915 59 283 17.0 27.0 0.00 0.00 0.00 45 996.8
20260509184649 59 283 14.0 27.0 0.00 0.00 0.00 46 996.8
20260509183915 60 271 11.0 27.0 0.00 0.00 0.00 48 996.7
20260509183412 60 302 9.0 26.0 0.00 0.00 0.00 48 996.5
20260509183144 60 261 8.0 19.0 0.00 0.00 0.00 49 996.3
20260509182641 60 293 11.0 22.0 0.00 0.00 0.00 50 996.3
20260509182136 60 296 11.0 22.0 0.00 0.00 0.00 51 996.3
20260509181410 59 316 8.0 22.0 0.00 0.00 0.00 55 996.2
20260509180910 58 272 15.0 22.0 0.00 0.00 0.00 55 996.0
20260509180410 57 269 9.0 23.0 0.00 0.00 0.00 60 995.7
20260509175407 50 348 4.0 11.0 0.00 0.00 0.00 75 995.5
20260509175141 49 357 2.0 9.0 0.00 0.00 0.00 77 995.4
20260509174640 49 355 5.0 12.0 0.00 0.00 0.00 77 995.5
20260509174135 48 348 6.0 12.0 0.00 0.00 0.00 78 995.4
20260509173406 48 350 4.0 12.0 0.00 0.00 0.00 75 995.5
20260509173135 48 351 5.0 13.0 0.00 0.00 0.00 76 995.5
20260509172407 48 337 4.0 13.0 0.00 0.00 0.00 75 995.4
20260509172135 48 337 6.0 11.0 0.00 0.00 0.00 74 995.4
20260509171408 49 25 5.0 11.0 0.00 0.00 0.00 74 995.4
20260509170906 49 319 5.0 10.0 0.00 0.00 0.00 73 995.4
20260509170406 49 316 4.0 11.0 0.00 0.00 0.00 72 995.5
20260509165907 50 355 6.0 11.0 0.00 0.00 0.00 69 995.5
20260509165404 52 7 6.0 11.0 0.00 0.00 0.00 66 995.5
20260509164904 55 338 4.0 10.0 0.00 0.00 0.00 61 995.4
20260509164404 58 313 3.0 16.0 0.00 0.00 0.00 57 995.3
20260509163904 60 358 6.0 18.0 0.00 0.00 0.00 62 995.3
20260509163656 60 231 10.0 18.0 0.00 0.00 0.00 62 995.2
20260509162950 60 257 9.0 17.0 0.00 0.00 0.00 62 995.2
20260509162404 60 272 10.0 18.0 0.00 0.00 0.00 62 995.0
20260509161906 60 255 8.0 18.0 0.00 0.00 0.00 62 995.2
20260509161403 60 262 5.0 18.0 0.00 0.00 0.00 62 995.2
20260509160925 60 282 7.0 13.0 0.00 0.00 0.00 63 995.2
20260509160447 60 240 6.0 14.0 0.00 0.00 0.00 64 995.1
20260509155903 60 275 7.0 14.0 0.00 0.00 0.00 64 995.1
20260509155402 60 219 4.0 12.0 0.00 0.00 0.00 65 995.1
20260509154903 59 231 4.0 12.0 0.00 0.00 0.00 65 995.1
20260509154402 60 231 6.0 12.0 0.00 0.00 0.00 65 995.1
20260509153859 60 210 6.0 15.0 0.00 0.00 0.00 65 995.1
20260509153358 60 224 7.0 15.0 0.00 0.00 0.00 64 995.1
20260509152358 60 207 4.0 15.0 0.00 0.00 0.00 63 995.0
20260509151857 60 216 11.0 15.0 0.00 0.00 0.00 64 995.1
20260509151356 60 233 6.0 16.0 0.00 0.00 0.00 64 995.1
20260509150859 60 238 8.0 16.0 0.00 0.00 0.00 65 995.1
20260509150355 60 237 4.0 12.0 0.00 0.00 0.00 65 995.0
20260509145856 59 228 4.0 14.0 0.00 0.00 0.00 64 995.1
20260509145403 59 247 8.0 15.0 0.00 0.00 0.00 64 995.1
20260509144852 60 244 6.0 18.0 0.00 0.00 0.00 63 995.2
20260509144656 60 213 9.0 18.0 0.00 0.00 0.00 63 995.1
20260509143934 60 258 8.0 15.0 0.00 0.00 0.00 64 995.0
20260509143353 60 213 7.0 15.0 0.00 0.00 0.00 64 994.9
20260509142853 60 200 8.0 15.0 0.00 0.00 0.00 64 994.8
20260509142349 59 241 9.0 17.0 0.00 0.00 0.00 65 994.9
20260509141848 59 234 8.0 17.0 0.00 0.00 0.00 66 995.1
20260509141346 58 236 9.0 19.0 0.00 0.00 0.00 65 995.3
20260509140847 59 279 9.0 21.0 0.00 0.00 0.00 65 995.2
20260509140346 59 236 12.0 21.0 0.00 0.00 0.00 64 994.8
20260509135846 59 185 8.0 15.0 0.00 0.00 0.00 65 994.7
20260509135400 59 255 7.0 15.0 0.00 0.00 0.00 66 994.9
20260509134845 58 244 8.0 15.0 0.00 0.00 0.00 67 995.0
20260509134407 57 158 6.0 14.0 0.00 0.00 0.00 66 995.0
20260509133845 56 223 7.0 13.0 0.00 0.00 0.00 66 995.1
20260509133343 56 183 6.0 16.0 0.00 0.00 0.00 65 995.1
20260509132843 56 233 9.0 16.0 0.00 0.00 0.00 64 995.3
20260509132354 56 197 7.0 15.0 0.00 0.00 0.00 63 995.3
20260509131842 56 188 8.0 19.0 0.00 0.00 0.00 62 995.3
20260509131341 56 217 11.0 19.0 0.00 0.00 0.00 62 995.4
20260509130843 55 252 7.0 18.0 0.00 0.00 0.00 61 995.2
20260509130342 55 219 6.0 17.0 0.00 0.00 0.00 60 995.4
20260509125842 54 204 9.0 17.0 0.00 0.00 0.00 59 995.4
20260509125341 54 227 8.0 15.0 0.00 0.00 0.00 59 995.5
20260509124841 54 224 7.0 15.0 0.00 0.00 0.00 58 995.6
20260509124604 54 220 7.0 16.0 0.00 0.00 0.00 58 995.5
20260509123838 53 204 9.0 16.0 0.00 0.00 0.00 58 995.5
20260509123335 53 216 8.0 17.0 0.00 0.00 0.00 57 995.6
20260509122833 53 241 5.0 17.0 0.00 0.00 0.00 57 995.8
20260509122600 53 207 10.0 17.0 0.00 0.00 0.00 56 995.9
20260509121833 53 231 7.0 15.0 0.00 0.00 0.00 56 995.9
20260509121332 53 214 6.0 14.0 0.00 0.00 0.00 56 996.1
20260509121057 53 175 9.0 15.0 0.00 0.00 0.00 56 996.2
20260509120331 52 228 9.0 15.0 0.00 0.00 0.00 55 996.2
20260509120056 52 214 7.0 15.0 0.00 0.00 0.00 55 996.0
20260509115327 52 219 7.0 15.0 0.00 0.00 0.00 54 996.1
20260509114824 52 213 8.0 14.0 0.00 0.00 0.00 54 996.1
20260509114549 52 154 6.0 18.0 0.00 0.00 0.00 53 996.5
20260509113824 52 204 7.0 18.0 0.00 0.00 0.00 53 996.7